Regional Weather Roundup
Issued by NWS

Home | Current Version | Previous Version | Graphics & Text | Print | Product List | Glossary On
Versions: 1 2 3 4 5 6 7 8 9 10 11 12 13 14 15 16 17 18 19 20 21 22 23 24 25 26 27 28 29 30 31 32 33 34 35 36 37 38 39 40 41 42 43 44 45 46 47 48 49 50
000
ASUS43 KMKX 261200
RWRWI

WISCONSIN REGIONAL WEATHER ROUNDUP
NATIONAL WEATHER SERVICE MILWAUKEE/SULLIVAN WI
700 AM CDT TUE MAY 26 2015

NOTE: "FAIR" INDICATES FEW OR NO CLOUDS BELOW 12,000 FEET WITH NO
SIGNIFICANT WEATHER AND/OR OBSTRUCTIONS TO VISIBILITY.

WIZ001-002-006>008-014>016-023>028-261300-
NORTHWEST WISCONSIN

CITY           SKY/WX    TMP DP  RH WIND       PRES   REMARKS
SUPERIOR ARPT  CLOUDY    49  49 100 CALM      29.85R FOG
ASHLAND        FOG       51  51 100 N6        29.84S VSB 1/2
6HR MIN TEMP:  50; 6HR MAX TEMP:  51;

HAYWARD        FOG       56  55  97 CALM      29.82R VSB 1/2
6HR MIN TEMP:  52; 6HR MAX TEMP:  57;

SIREN          FOG       51  51  98 N5        29.82R VSB 1/4
CUMBERLAND     CLOUDY    54  54 100 CALM      29.82R FOG
RICE LAKE      FOG       57  56  96 CALM      29.84R VSB 3/4
CHETEK         FOG       58  58 100 SE5       29.83R VSB<1/4
LADYSMITH      CLOUDY    60  59  97 SE3       29.85R FOG
EAU CLAIRE     PTSUNNY   61  59  93 NE3       29.81R
6HR MIN TEMP:  55; 6HR MAX TEMP:  61;

MENOMONIE      CLOUDY    58  58  99 CALM      29.81R FOG
NEW RICHMOND   CLOUDY    56  56 100 CALM      29.82R FOG
OSCEOLA        FOG       55  55 100 N3        29.84R VSB 1/4
$$

WIZ003>005-009-010-017-018-261300-
NORTH CENTRAL WISCONSIN

CITY           SKY/WX    TMP DP  RH WIND       PRES   REMARKS
MANITOWISH WTR PTSUNNY   60  60 100 CALM      29.83R
ARBOR VITAE    CLOUDY    59  58  96 CALM      29.84R FOG
WOODRUFF       CLOUDY    59  58  96 CALM      29.84R FOG
RHINELANDER    CLOUDY    62  60  93 SW5       29.86R
6HR MIN TEMP:  58; 6HR MAX TEMP:  62;

EAGLE RIVER    CLOUDY    59  59 100 CALM      29.84R FOG
LAND O LAKES   CLOUDY    60  60 100 CALM      29.85R FOG
PHILLIPS       FOG       59  59 100 CALM      29.82R VSB 1/2
TOMAHAWK       PTSUNNY   59  58  97 CALM      29.85R FOG
MEDFORD        PTSUNNY   60  59  99 S5        29.85R FOG
MERRILL        MOSUNNY   59  59 100 CALM      29.86R FOG
$$

WIZ029-030-035-036-043>047-261300-
CENTRAL WISCONSIN

CITY           SKY/WX    TMP DP  RH WIND       PRES   REMARKS
WAUSAU         MOSUNNY   63  61  93 SE5       29.85R
6HR MIN TEMP:  60; 6HR MAX TEMP:  63;

MOSINEE        NOT AVBL
MARSHFIELD     MOSUNNY   63  60  90 S3        29.85R
6HR MIN TEMP:  58; 6HR MAX TEMP:  64;

STEVENS POINT  MOSUNNY   60  60  99 CALM      29.87R
WAUPACA        SUNNY     65  64  96 CALM      29.86R
WAUTOMA        NOT AVBL
WISC RAPIDS    MOSUNNY   64  61  90 CALM      29.86S
6HR MIN TEMP:  58; 6HR MAX TEMP:  64;

CAMP DOUGLAS   NOT AVBL
$$

WIZ011>013-019>022-031-037>040-048>050-261300-
NORTHEAST WISCONSIN

CITY           SKY/WX    TMP DP  RH WIND       PRES   REMARKS
ANTIGO         MOSUNNY   60  60 100 S6        29.86S FOG
SHAWANO        SUNNY     64  62  90 CALM      29.87R
OCONTO         SUNNY     65  63  94 S6        29.85S
STURGEON BAY   MOSUNNY   64  57  77 S8        29.89F
6HR MIN TEMP:  63; 6HR MAX TEMP:  66;

GREEN BAY      SUNNY     69  63  81 SW9       29.86S
6HR MIN TEMP:  62; 6HR MAX TEMP:  69;

MANITOWOC      NOT AVBL
APPLETON       MOSUNNY   66  63  88 S13       29.86F
CLINTONVILLE   SUNNY     63  61  94 CALM      29.86R
OSHKOSH        MOSUNNY   67  63  87 S14       29.86S
6HR MIN TEMP:  61; 6HR MAX TEMP:  67;

$$

WIZ032>034-041-042-053>061-261300-
SOUTHWEST WISCONSIN

CITY           SKY/WX    TMP DP  RH WIND       PRES   REMARKS
LA CROSSE      PTSUNNY   63  59  87 E5        29.82R
6HR MIN TEMP:  61; 6HR MAX TEMP:  70; 6HR PCP:  0.05;

SPARTA         CLOUDY    60  58  94 CALM      29.84S
VIROQUA        PTSUNNY   62  59  90 SE9       29.83S
BOSCOBEL       CLOUDY    62  59  90 E3        29.83S
6HR MIN TEMP:  58; 6HR MAX TEMP:  70; 6HR PCP: TRACE;

PRAIRIE DU CHI CLOUDY    62  58  86 CALM      29.81S
PLATTEVILLE    CLOUDY    67  65  96 SE9       29.86R
$$

WIZ056-057-062-063-064-067-068-261300-
SOUTH CENTRAL WISCONSIN

CITY           SKY/WX    TMP DP  RH WIND       PRES   REMARKS
REEDSBURG      CLOUDY    64  61  90 CALM      29.84S
BARABOO/DELLS  CLOUDY    64  60  86 S9        29.85S
LONE ROCK      NOT AVBL
MINERAL POINT  CLOUDY    64  63  94 SE8       29.87R
MADISON        CLOUDY    67  64  90 S8        29.87S
6HR MIN TEMP:  66; 6HR MAX TEMP:  69; 6HR PCP:  0.02;

MIDDLETON      PTSUNNY   69  67  93 S8        29.88R
WATERTOWN      MOSUNNY   66  66 100 CALM      29.88F
MONROE         CLOUDY    66  64  94 S10       29.89R FOG
JANESVILLE     CLOUDY    70  66  88 S12G17    29.89R
$$

WIZ051-052-058>065-066-070>072-261300-
SOUTHEAST WISCONSIN

CITY           SKY/WX    TMP DP  RH WIND       PRES   REMARKS
MILWAUKEE      PTSUNNY   68  64  87 S9        29.91S
6HR MIN TEMP:  65; 6HR MAX TEMP:  68;

WAUKESHA       MOSUNNY   64  63  94 S12       29.91F
MILWAUKEE/TIMM SUNNY     68  63  83 S8        29.91S
RACINE         CLOUDY    65  61  87 S6        29.94S
6HR MIN TEMP:  63; 6HR MAX TEMP:  71;

BURLINGTON     CLOUDY    65  64  94 S3        29.92S
KENOSHA        CLOUDY    69  65  86 S12       29.92F
6HR MIN TEMP:  67; 6HR MAX TEMP:  69;

FOND DU LAC    CLOUDY    69  63  81 S10G20    29.88S
6HR MIN TEMP:  66; 6HR MAX TEMP:  69;

SHEBOYGAN      MOSUNNY   67  63  87 S9        29.89S
6HR MIN TEMP:  59; 6HR MAX TEMP:  67;

WEST BEND      MOSUNNY   66  63  88 S6        29.90S
JUNEAU         CLOUDY    66  64  93 S10       29.90S
$$

LSZ147-162-261300-
LAKE SUPERIOR

STATION/POSITION TIME  TEMP    WIND        PRES    WAVE
                       AIR SEA DIR/SP/G            HT/PER
                 (UTC) (F)     (DEG/KT/KT) (MB)    (FT/S)
W MID LAKE BUOY  1050   41 36  240/  4/  4   N/A     1/ 4
DEVILS ISLAND    1100   45     240/  5/  6   N/A
PORT WING        1140   45     320/  3/  4   N/A
SAXON HARBOR     1100   47     330/  1/  4   N/A
$$

LMZ867-665-643>646-261300-
LAKE MICHIGAN

STATION/POSITION TIME  TEMP    WIND        PRES    WAVE
                       AIR SEA DIR/SP/G            HT/PER
                 (UTC) (F)     (DEG/KT/KT) (MB)    (FT/S)
CHAMBERS ISLAND  1100   63     170/  3/  8   N/A
N MID LAKE BUOY  1050   42 36  190/ 16/ 17   N/A     2/ 5
NORTHPORT PIER   1100   54     160/  3/  8   N/A
SISTER BAY       1103   57     160/  9/ 11   N/A
KEWAUNEE LAKESHO 1100   52     180/ 10/ 12   N/A
SHEBOYGAN LAKESH 1100   54     180/ 17/ 18   N/A
PORT WASHINGTON  1140   55     190/  5/  7   N/A
ATWATER BUOY     1100   54 47  180/  8/ 10   N/A
MILWAUKEE LAKESH 1100   62     160/  7/  9   N/A
S MID LAKE BUOY  1050   46 38  180/ 12/ 14   N/A     1
KENOSHA   LAKESH 1100   56     180/ 11/ 17   N/A
$$

TC  - TEMPERATURE IN CELSIUS
VSB - VISIBILITY IN STATUTE MILES
WCI - WIND CHILL INDEX
HX  - HEAT INDEX



USA.gov is the U.S. government's official web portal to all federal, state and local government web resources and services.